COSMOS 1275 DEB, 12671

Orbit data source: Space-Track

COSMOS 1275 DEB, 12671 is space debris in LEO originally from a launch on Thu, 04 Jun 1981 UTC launched from the Plesetsk Missile And Space Complex (PKMTR). Debris objects in space refer to the collection of defunct objects orbiting the Earth. Examples of debris include non-operational satellites, rocket bodies, and fragments generated from explosions, collisions, or faulty payload assembly.

Loading next visibility...
Identifier
12671, 1981-053AB
Orbit
LEO
Country
Flag of CISCIS
Related business
Manufacturer
Unknown
Mission
Spacecraft
Bus & Motor
Unknown
Mass
Unknown
Launch date (UTC)
1981-06-04 (45 years ago)
Launch vehicle
Unknown
Launch site
Plesetsk Missile And Space Complex (PKMTR)
Object type
Payload
Rocket body
Debris
Shape & HBR
Unknown shape, 0.1 m
Radar Cross Section
Small (<0.1 m²)

Expand to show TLE details & history
Last TLE update: 7 hours ago

TLE from 7 hours ago
0 COSMOS 1275 DEB
1 12671U 81053AB  25346.98613601  .00002935  00000-0  16146-2 0  9997
2 12671  82.9080 336.6095 0021238  92.1105 268.2503 14.11235916253584
Epoch: 2025-12-12T23:40Z
TLE epoch observation values (Epoch: 2025-12-12T23:40:02.151Z)
Latitude
-0.00007°
Longitude
-100.31936°
Altitude
858.597 km
Speed
7.423 km/s
True Right ascension
22h 26m 26s
True Declination
0° 00' 00"
Sunlit
Object was in daylight at epoch
Visualization orbit readout
Latitude
Unknown
Longitude
Unknown
Altitude
Unknown
Speed
Unknown
Apparent Right ascension
Unknown
Apparent Declination
Unknown
Sunlit
N/A
Visualization observer readout
Local Sidereal Time
05:21:56
Azimuth
Unknown
Elevation
Unknown
Doppler factor
Unknown
Orbital elements
Apogee altitude
867.602 km
Perigee altitude
836.89 km
Semi-major axis
7,230.383 km
Eccentricity
0.00212
Inclination
82.908°
RAAN
336.6095°
Arg. of periapsis
92.1105°
True anomaly
268.00706°
Mean anomaly
268.2503°
Eccentric anomaly
268.12868°
Mean motion
3.53022 °/min
Orbital period
101.98 mins
BSTAR
0.0016146
Loading maneuver chart data...
Computing Atmospheric mass density...
Loading historical data...
Loading historical data...
Loading historical data...
Loading historical data...
Loading historical data...
Loading historical data...
Loading historical data...

Documentation

Showing up to 5 results
|